Waarnemingen

Advertentie
Mijn weer
Camborne, Groot Brittannië (3808): temperatuur & dauwpunt: 21.01.2021 12:00:00 - 27.01.2021 12:00:00 (GMT)Camborne, Groot Brittannië (3808): temperatuur -20cm & temperatuur -100cm: 21.01.2021 12:00:00 - 27.01.2021 12:00:00 (GMT)Camborne, Groot Brittannië (3808): windsnelheid & windstoten: 21.01.2021 12:00:00 - 27.01.2021 12:00:00 (GMT)Camborne, Groot Brittannië (3808): windrichting: 21.01.2021 12:00:00 - 27.01.2021 12:00:00 (GMT)Camborne, Groot Brittannië (3808): luchtdruk: 21.01.2021 12:00:00 - 27.01.2021 12:00:00 (GMT)Camborne, Groot Brittannië (3808): zicht: 21.01.2021 12:00:00 - 27.01.2021 12:00:00 (GMT)Camborne, Groot Brittannië (3808): Zonneschijnduur: 21.01.2021 12:00:00 - 27.01.2021 12:00:00 (GMT)Camborne, Groot Brittannië (3808): neerslag: 21.01.2021 12:00:00 - 27.01.2021 12:00:00 (GMT)
Datum & Tijd tt [°C] td [°C] tt -20cm [°C] tt -100cm [°C] ff [km/u] ff [kn] fx [km/u] fx [kn] dd ppp [hPa] vv [km] sd [min] rr [mm]
27.01.2021 12:00:00 10,3 10,3 - - 8 4 - - ZZW 1013,4 2,2 0 0,4
27.01.2021 11:00:00 10,0 10,0 - - 11 6 - - ZZW 1014,1 0,2 0 0,0
27.01.2021 10:00:00 9,6 9,6 - - 11 6 - - ZW 1013,8 2,5 0 0,0
27.01.2021 09:00:00 9,3 9,3 7,0 7,7 13 7 - - ZZW 1013,4 3,0 0 0,0
27.01.2021 08:00:00 9,7 9,6 - - 13 7 - - ZW 1013,4 2,5 0 0,0
27.01.2021 07:00:00 9,6 9,6 - - 8 4 - - ZW 1013,4 14 0 0,0
27.01.2021 06:00:00 9,6 9,5 - - 15 8 - - WZW 1013,5 25 0 0,0
27.01.2021 05:00:00 9,4 9,4 - - 13 7 - - W 1013,7 2,9 0 0,0
27.01.2021 04:00:00 9,3 9,1 - - 18 10 - - W 1013,4 15 0 0,0
27.01.2021 03:00:00 9,0 8,9 - - 24 13 - - W 1013,6 16 0 0,0
27.01.2021 02:00:00 8,2 8,2 - - 13 7 - - ZW 1013,7 30 0 0,0
27.01.2021 01:00:00 8,2 8,2 - - 8 4 - - ZZW 1013,4 15 0 0,0
27.01.2021 00:00:00 8,5 8,5 - - 9 5 - - ZW 1013,7 18 - 0,2
26.01.2021 23:00:00 8,8 8,8 - - 15 8 - - W 1013,5 5 0 0,0
26.01.2021 22:00:00 8,9 8,9 - - 16 9 - - WNW 1013,2 0,6 0 0,0
26.01.2021 21:00:00 8,9 8,9 - - 16 9 - - WNW 1013,2 0,9 0 0,0
26.01.2021 20:00:00 9,1 9,1 - - 16 9 - - W 1012,7 0,8 0 0,0
26.01.2021 19:00:00 9,4 9,4 - - 11 6 - - W 1011,6 0,3 0 0,0
26.01.2021 18:00:00 9,9 9,9 - - 11 6 - - W 1011,4 0,4 0 0,0
26.01.2021 17:00:00 10,1 10,1 - - 16 9 - - W 1011,2 0,6 0 0,0
26.01.2021 16:00:00 10,2 10,2 - - 11 6 - - ZZW 1010,6 2,2 0 0,0
26.01.2021 15:00:00 10,2 10,1 - - 18 10 - - ZW 1010,6 1,5 0 0,2
26.01.2021 14:00:00 9,9 9,7 - - 24 13 - - ZZW 1011,0 2,2 0 0,0
26.01.2021 13:00:00 9,2 9,0 - - 34 18 52 28 Z 1011,2 1,8 0 0,6
26.01.2021 12:00:00 8,8 8,5 - - 35 19 55 30 Z 1011,8 1,5 0 0,4
26.01.2021 11:00:00 8,5 8,0 - - 37 20 57 31 Z 1012,4 2,2 0 0,4
26.01.2021 10:00:00 7,9 7,3 - - 35 19 57 31 Z 1012,9 3,0 0 0,0
26.01.2021 09:00:00 7,3 6,4 6,2 7,7 29 16 50 27 Z 1012,9 15 0 1,0
26.01.2021 08:00:00 6,9 6,1 - - 26 14 57 31 Z 1013,6 5 0 2,2
26.01.2021 07:00:00 6,7 6,0 - - 31 17 - - Z 1014,0 7 0 3,4
26.01.2021 06:00:00 6,8 5,2 - - 11 6 - - Z 1015,9 5 0 1,2
26.01.2021 05:00:00 6,9 4,5 - - 21 11 - - Z 1015,3 6 0 0,4
26.01.2021 04:00:00 7,2 1,8 - - 18 10 - - Z 1015,5 35 0 0,0
26.01.2021 03:00:00 6,5 1,0 - - 18 10 - - Z 1016,4 40 0 0,0
26.01.2021 02:00:00 5,5 1,3 - - 13 7 - - Z 1016,7 40 0 0,0
26.01.2021 01:00:00 5,1 0,7 - - 9 5 - - Z 1017,0 40 0 0,0
26.01.2021 00:00:00 5,1 0,4 - - 11 6 - - Z 1017,4 45 - 0,0
25.01.2021 23:00:00 5,3 -0,1 - - 11 6 - - Z 1017,6 45 0 0,0
25.01.2021 22:00:00 4,6 -0,6 - - 13 7 - - Z 1017,8 45 0 0,0
25.01.2021 21:00:00 4,1 -0,9 - - 11 6 - - Z 1017,6 40 0 0,0
25.01.2021 20:00:00 2,8 -1,7 - - 11 6 - - Z 1017,3 40 0 0,0
25.01.2021 19:00:00 2,7 -2,1 - - 8 4 - - Z 1017,5 35 0 0,0
25.01.2021 18:00:00 3,3 -2,6 - - 8 4 - - Z 1016,8 35 0 0,0
25.01.2021 17:00:00 4,6 -2,4 - - 9 5 - - ZZW 1016,0 40 30 0,0
25.01.2021 16:00:00 5,8 -3,6 - - 15 8 - - ZW 1015,5 45 18 0,0
25.01.2021 15:00:00 5,7 -4,4 - - 15 8 - - ZW 1015,5 60 42 0,0
25.01.2021 14:00:00 6,8 -4,0 - - 13 7 - - ZW 1015,1 40 60 0,0
25.01.2021 13:00:00 6,7 -2,5 - - 11 6 - - ZW 1014,8 50 60 0,0
25.01.2021 12:00:00 5,9 -1,0 - - 11 6 - - ZZW 1014,6 40 54 0,0
25.01.2021 11:00:00 4,8 -1,6 - - 8 4 - - Z 1014,0 40 60 0,0
25.01.2021 10:00:00 2,9 -2,5 - - 5 3 - - Z 1013,2 35 60 0,0
25.01.2021 09:00:00 0,3 -2,9 6,5 8,0 5 3 - - ZZO 1012,6 35 24 0,0
25.01.2021 08:00:00 -0,7 -3,0 - - 4 2 - - ZZO 1011,7 30 0 0,0
25.01.2021 07:00:00 -0,5 -2,6 - - 8 4 - - Z 1011,2 26 0 0,0
25.01.2021 06:00:00 -1,0 -2,7 - - 5 3 - - O 1010,4 20 0 0,0
25.01.2021 05:00:00 -0,3 -2,7 - - 5 3 - - ZZO 1009,7 40 0 0,0
25.01.2021 04:00:00 1,2 -2,3 - - 9 5 - - ONO 1008,7 26 0 0,0
25.01.2021 03:00:00 3,3 -2,7 - - 21 11 - - NNO 1007,6 24 0 0,0
25.01.2021 02:00:00 3,5 -3,0 - - 22 12 - - N 1006,9 22 0 0,0
25.01.2021 01:00:00 3,4 -2,2 - - 24 13 46 25 N 1006,5 22 0 0,0
25.01.2021 00:00:00 3,4 -1,9 - - 29 16 46 25 N 1005,4 22 - 0,0
24.01.2021 23:00:00 2,8 1,4 - - 18 10 50 27 N 1004,5 24 0 1,8
24.01.2021 22:00:00 4,7 -1,6 - - 26 14 48 26 NW 1003,4 28 0 0,0
24.01.2021 21:00:00 4,6 -3,0 - - 29 16 48 26 NNW 1002,8 28 0 0,0
24.01.2021 20:00:00 4,7 -0,2 - - 29 16 52 28 NNW 1002,0 30 0 0,0
24.01.2021 19:00:00 4,8 -3,7 - - 35 19 59 32 NNW 1001,4 35 0 0,0
24.01.2021 18:00:00 4,9 -3,9 - - 35 19 61 33 NW 1000,7 30 0 0,0
24.01.2021 17:00:00 4,7 -3,1 - - 39 21 57 31 NW 1000,0 35 0 0,0
24.01.2021 16:00:00 5,1 -2,3 - - 35 19 57 31 NW 999,4 35 6 0,0
24.01.2021 15:00:00 5,1 -0,1 - - 35 19 61 33 WNW 998,7 25 12 0,0
24.01.2021 14:00:00 5,5 0,6 - - 31 17 70 38 WNW 998,3 26 30 0,0
24.01.2021 13:00:00 5,7 -0,8 - - 34 18 54 29 WNW 997,9 25 6 0,0
24.01.2021 12:00:00 6,4 0,0 - - 28 15 57 31 WNW 997,9 28 30 0,0
24.01.2021 11:00:00 5,9 0,6 - - 28 15 59 32 WNW 997,8 30 6 0,4
24.01.2021 10:00:00 5,4 0,4 - - 24 13 54 29 WNW 997,6 30 0 0,0
24.01.2021 09:00:00 5,4 -0,1 6,9 8,2 24 13 65 35 WNW 997,1 25 0 0,2
24.01.2021 08:00:00 4,1 0,1 - - 29 16 63 34 W 997,9 6 0 0,2
24.01.2021 07:00:00 4,8 -0,8 - - 22 12 - - W 997,1 35 0 0,0
24.01.2021 06:00:00 3,7 1,2 - - 26 14 52 28 WNW 997,2 15 0 0,6
24.01.2021 05:00:00 4,8 1,6 - - 21 11 59 32 W 996,8 30 0 0,8
24.01.2021 04:00:00 4,4 2,4 - - 15 8 - - W 997,0 30 0 0,2
24.01.2021 03:00:00 3,2 2,3 - - 13 7 - - ZW 997,1 20 0 0,2
24.01.2021 02:00:00 3,0 2,1 - - 15 8 - - ZZW 997,7 30 0 0,8
24.01.2021 01:00:00 3,2 2,2 - - 18 10 59 32 ZZW 998,0 30 0 1,6
24.01.2021 00:00:00 4,1 -0,2 - - 15 8 - - Z 998,1 30 - 0,0
23.01.2021 23:00:00 3,0 -1,1 - - 15 8 - - ZZO 998,9 30 0 0,0
23.01.2021 22:00:00 2,3 -1,8 - - 13 7 - - ZZO 999,4 30 0 0,0
23.01.2021 21:00:00 0,8 -2,1 - - 9 5 - - ZO 999,9 25 0 0,0
23.01.2021 20:00:00 0,4 -2,4 - - 8 4 - - Z 1000,0 25 0 0,0
23.01.2021 19:00:00 1,9 -1,5 - - 8 4 - - Z 999,8 23 0 0,0
23.01.2021 18:00:00 1,2 -1,9 - - 8 4 - - ZZO 999,8 16 0 0,0
23.01.2021 17:00:00 3,1 -1,9 - - 4 2 - - WNW 999,5 35 0 0,0
23.01.2021 16:00:00 4,2 -2,5 - - 5 3 - - NW 999,4 40 24 0,0
23.01.2021 15:00:00 5,4 -2,1 - - 9 5 - - NW 999,3 45 60 0,0
23.01.2021 14:00:00 5,3 -2,1 - - 13 7 - - NNW 999,5 45 60 0,0
23.01.2021 13:00:00 6,0 -2,0 - - 15 8 - - NNW 999,4 45 48 0,0
23.01.2021 12:00:00 6,0 -2,7 - - 15 8 - - N 999,4 45 36 0,0
23.01.2021 11:00:00 5,4 -2,0 - - 18 10 - - NNW 999,2 45 24 0,0
23.01.2021 10:00:00 5,7 -0,4 - - 21 11 - - N 998,3 40 36 0,0
23.01.2021 09:00:00 5,0 -1,0 7,2 8,2 24 13 - - NNW 997,9 40 6 0,0
23.01.2021 08:00:00 4,8 -0,9 - - 24 13 - - N 997,0 40 0 0,0
23.01.2021 07:00:00 5,3 -0,5 - - 22 12 - - N 995,6 35 0 0,0
23.01.2021 06:00:00 5,7 -0,5 - - 28 15 - - N 994,6 30 0 0,0
23.01.2021 05:00:00 5,1 1,3 - - 16 9 - - NNO 993,9 30 0 0,0
23.01.2021 04:00:00 4,4 0,9 - - 13 7 - - NNO 993,5 30 0 0,0
23.01.2021 03:00:00 3,7 1,5 - - 9 5 - - ONO 993,3 30 0 0,0
23.01.2021 02:00:00 3,9 1,8 - - 11 6 - - NO 993,3 30 0 0,0
23.01.2021 01:00:00 3,9 1,4 - - 11 6 - - O 994,0 30 0 0,0
23.01.2021 00:00:00 3,2 1,0 - - 8 4 - - ONO 994,6 30 - 0,0
22.01.2021 23:00:00 3,3 1,4 - - 5 3 - - ONO 995,4 30 0 0,0
22.01.2021 22:00:00 3,6 1,4 - - 9 5 - - ZZO 996,2 30 0 0,0
22.01.2021 21:00:00 4,4 1,6 - - 8 4 - - WZW 996,6 30 0 0,0
22.01.2021 20:00:00 5,5 2,3 - - 8 4 - - WNW 997,4 25 0 0,0
22.01.2021 19:00:00 5,7 1,2 - - 16 9 - - WNW 997,1 18 0 0,0
22.01.2021 18:00:00 5,6 1,7 - - 21 11 - - WNW 997,0 24 0 0,2
22.01.2021 17:00:00 5,9 2,4 - - 24 13 - - WNW 996,5 29 6 0,4
22.01.2021 16:00:00 6,7 0,5 - - 26 14 - - WNW 996,3 28 12 0,0
22.01.2021 15:00:00 6,4 0,5 - - 24 13 52 28 W 995,9 30 12 0,0
22.01.2021 14:00:00 7,5 2,3 - - 31 17 52 28 W 995,4 30 30 0,2
22.01.2021 13:00:00 6,4 1,7 - - 26 14 50 27 W 995,4 30 36 0,2
22.01.2021 12:00:00 7,9 0,9 - - 22 12 - - W 995,3 35 60 0,0
22.01.2021 11:00:00 7,3 1,9 - - 16 9 50 27 W 995,1 35 30 0,0
22.01.2021 10:00:00 7,2 2,5 - - 16 9 - - W 994,9 30 18 0,0
22.01.2021 09:00:00 4,8 3,1 7,7 8,2 11 6 - - WZW 994,5 30 0 0,0
22.01.2021 08:00:00 3,5 2,0 - - 11 6 - - ZW 994,1 30 0 0,2
22.01.2021 07:00:00 3,7 1,4 - - 11 6 - - ZW 993,4 30 0 0,0
22.01.2021 06:00:00 3,4 1,3 - - 9 5 - - ZW 993,0 35 0 0,0
22.01.2021 05:00:00 2,9 1,3 - - 8 4 - - Z 992,7 35 0 0,0
22.01.2021 04:00:00 3,2 1,2 - - 8 4 - - Z 992,2 30 0 0,0
22.01.2021 03:00:00 3,3 1,1 - - 9 5 - - ZZW 991,9 30 0 0,0
22.01.2021 02:00:00 5,2 0,7 - - 9 5 - - W 991,5 35 0 0,0
22.01.2021 01:00:00 5,2 0,3 - - 9 5 - - WNW 991,3 35 0 0,0
22.01.2021 00:00:00 5,5 1,2 - - 9 5 - - WNW 991,2 35 - 0,0
21.01.2021 23:00:00 6,2 0,9 - - 15 8 - - NW 990,8 40 0 0,0
21.01.2021 22:00:00 6,3 2,1 - - 11 6 - - WNW 990,1 35 0 0,0
21.01.2021 21:00:00 6,2 0,5 - - 15 8 - - WNW 989,6 40 0 0,0
21.01.2021 20:00:00 5,6 0,3 - - 13 7 - - WNW 989,1 40 0 0,0
21.01.2021 19:00:00 6,0 0,6 - - 15 8 - - NW 988,6 28 0 0,0
21.01.2021 18:00:00 6,8 1,6 - - 18 10 - - NW 987,9 28 0 0,0
21.01.2021 17:00:00 6,7 0,8 - - 18 10 - - NW 987,2 35 18 0,0
21.01.2021 16:00:00 7,4 1,2 - - 18 10 - - NW 986,4 26 6 0,0
21.01.2021 15:00:00 7,4 3,0 - - 16 9 - - NW 986,0 26 0 0,0
21.01.2021 14:00:00 6,4 2,9 - - 9 5 - - W 986,2 26 0 0,4
21.01.2021 13:00:00 7,4 3,9 - - 4 2 - - ZW 986,7 28 0 0,0
21.01.2021 12:00:00 6,7 3,2 - - 5 3 - - Z 987,4 26 0 0,0

tt = temperatuur
td = dauwpunt
tt -20cm = temperatuur -20cm
tt -100cm = temperatuur -100cm
ff = windsnelheid
fx = windstoten
dd = windrichting
ppp = luchtdruk
vv = zicht
sd = Zonneschijnduur
rr = neerslag

Weerstations in de omgeving